Weather History for KGEZ - October, 2012

Change the Weather History Date:

Monday, October 15, 2012

  Actual Average Record
Temperature  
Mean Temperature 52 °F 54 °F  
Max Temperature 61 °F 66 °F 83 °F (2008)
Min Temperature 43 °F 43 °F 28 °F (2006)
Degree Days  
Heating Degree Days 13 11  
Month to date heating degree days 179 137  
Since 1 July heating degree days 263 222  
Cooling Degree Days 0 0  
Month to date cooling degree days 3 11  
Year to date cooling degree days 1407 910  
Growing Degree Days 2 (Base 50)    
Moisture  
Dew Point 45 °F    
Average Humidity 71    
Maximum Humidity 100    
Minimum Humidity 42    
Precipitation  
Precipitation T in 0.10 in 0.12 in (2004)
Month to date precipitation 1.52 1.57  
Year to date precipitation 24.19 35.02  
Sea Level Pressure  
Sea Level Pressure 29.87 in    
Wind  
Wind Speed 9 mph (West)    
Max Wind Speed 20 mph    
Max Gust Speed 25 mph    
Visibility 9 miles    
Events      
T = Trace of Precipitation, MM = Missing Value Source: NWS Daily Summary

Daily Weather History Graph

Daily Weather History Graph

Search for Another Location

Airport or City:

Trip Planner

Search our weather history database for the weather conditions in past years. The results will help you decide how hot, cold, wet, or windy it might be!

Date:

Astronomy

Oct. 15, 2012 Rise Set
Actual Time 7:53 AM EDT 7:03 PM EDT
Civil Twilight 7:26 AM EDT 7:30 PM EDT
Nautical Twilight 6:55 AM EDT 8:01 PM EDT
Astronomical Twilight 6:24 AM EDT 8:32 PM EDT
Moon 8:03 AM EDT (10/15) 7:02 PM EDT (10/15)
Length of Visible Light 12h 03m
Length of Day
11h 09m
New Moon, 0% of the Moon is Illuminated
Oct 15
New Moon
Oct 21
First Quarter
Oct 29
Full
Nov 6
Last Quarter
Nov 13
New

Hourly Weather History & Observations

Time (EDT) Temp. Dew Point Humidity Pressure Visibility Wind Dir Wind Speed Gust Speed Precip Events Conditions
12:53 AM 55.0 °F - N/A% 29.80 in 10.0 mi West 12.7 mph - N/A   Overcast
1:16 AM 55.4 °F 55.4 °F 100% 29.81 in 8.0 mi West 12.7 mph - N/A   Overcast
1:44 AM 53.6 °F 51.8 °F 94% 29.81 in 9.0 mi West 10.4 mph - N/A   Overcast
1:53 AM 54.0 °F 52.0 °F 93% 29.80 in 6.0 mi West 10.4 mph 20.7 mph N/A   Overcast
1:57 AM 53.6 °F 51.8 °F 94% 29.81 in 5.0 mi West 8.1 mph 20.7 mph N/A   Overcast
2:37 AM 53.6 °F 51.8 °F 94% 29.81 in 9.0 mi West 6.9 mph - 0.00 in   Overcast
2:44 AM 53.6 °F 51.8 °F 94% 29.81 in 9.0 mi WSW 8.1 mph - 0.00 in   Overcast
2:53 AM 53.1 °F 52.0 °F 96% 29.81 in 8.0 mi WSW 8.1 mph - 0.00 in   Overcast
3:16 AM 53.6 °F 51.8 °F 94% 29.81 in 7.0 mi WSW 10.4 mph - N/A   Overcast
3:22 AM 53.6 °F 51.8 °F 94% 29.81 in 7.0 mi WSW 10.4 mph - N/A   Overcast
3:53 AM 52.0 °F 51.1 °F 97% 29.80 in 7.0 mi WSW 11.5 mph - 0.00 in   Overcast
4:53 AM 52.0 °F 46.9 °F 83% 29.80 in 10.0 mi WSW 11.5 mph - N/A   Overcast
5:53 AM 51.1 °F 46.0 °F 83% 29.81 in 10.0 mi WSW 6.9 mph - N/A   Overcast
6:38 AM 51.8 °F 44.6 °F 76% 29.83 in 10.0 mi West 9.2 mph - N/A   Overcast
6:53 AM 51.1 °F 45.0 °F 80% 29.83 in 10.0 mi West 10.4 mph - N/A   Overcast
7:53 AM 50.0 °F 45.0 °F 83% 29.84 in 10.0 mi West 11.5 mph - N/A   Overcast
8:53 AM 50.0 °F 44.1 °F 80% 29.87 in 10.0 mi West 13.8 mph - N/A   Overcast
9:53 AM 50.0 °F 44.1 °F 80% 29.89 in 10.0 mi West 13.8 mph 19.6 mph N/A   Overcast
10:21 AM 51.8 °F 42.8 °F 71% 29.90 in 10.0 mi WNW 13.8 mph - N/A   Partly Cloudy
10:53 AM 52.0 °F 43.0 °F 71% 29.91 in 10.0 mi WNW 11.5 mph - N/A   Partly Cloudy
11:53 AM 54.0 °F 43.0 °F 66% 29.91 in 10.0 mi West 10.4 mph 18.4 mph N/A   Clear
12:53 PM 55.9 °F 43.0 °F 62% 29.92 in 10.0 mi West 12.7 mph - N/A   Partly Cloudy
1:53 PM 59.0 °F 43.0 °F 55% 29.92 in 10.0 mi West 11.5 mph 20.7 mph N/A   Scattered Clouds
2:53 PM 60.1 °F 41.0 °F 49% 29.91 in 10.0 mi WNW 15.0 mph 21.9 mph N/A   Scattered Clouds
3:53 PM 61.0 °F 37.9 °F 42% 29.91 in 10.0 mi WNW 13.8 mph 20.7 mph N/A   Clear
4:53 PM 60.1 °F 37.0 °F 42% 29.91 in 10.0 mi West 12.7 mph - N/A   Clear
5:53 PM 59.0 °F 37.0 °F 44% 29.93 in 10.0 mi WNW 15.0 mph - N/A   Clear
6:53 PM 55.9 °F 37.0 °F 49% 29.94 in 10.0 mi WNW 9.2 mph - N/A   Clear
7:53 PM 51.1 °F 37.9 °F 61% 29.94 in 10.0 mi WNW 4.6 mph - N/A   Clear
8:53 PM 51.1 °F 37.0 °F 59% 29.96 in 10.0 mi WNW 3.5 mph - N/A   Clear
9:53 PM 46.9 °F 37.9 °F 71% 29.96 in 10.0 mi Calm Calm - N/A   Clear
10:53 PM 44.1 °F 37.9 °F 79% 29.96 in 10.0 mi Calm Calm - N/A   Clear
11:53 PM 43.0 °F 39.0 °F 86% 29.96 in 10.0 mi Calm Calm - N/A   Clear